User: anonymous   Login
Location: Meriden
(44.0740°N, 93.3870°W)
Time: 19:16:03
(UTC-05:00)
Language:

Hamsat - Orbit

View from above orbital plane
View from above orbital plane
View from above satellite
View from above satellite

Ground track
Ground track

The orbit data is extracted from the following two-line orbital elements,

1 28650U 05017B   16209.94181335 +.00000377 +00000-0 +46245-4 0  9998
2 28650 097.6107 190.1630 0025041 122.2392 238.1257 14.88339808607863
Epoch (UTC): 27 July 2016 22:36:12
Eccentricity: 0.0025041
inclination: 97.6107°
perigee height: 585 km
apogee height: 620 km
right ascension of ascending node: 190.1630°
argument of perigee: 122.2392°
revolutions per day: 14.88339808
mean anomaly at epoch: 238.1257°
orbit number at epoch: 60786

The dashed part of the orbit path shows where the satellite is in the earth's shadow,  

DLR